Regional Weather Roundup
Issued by NWS

Home | Current Version | Previous Version | Text Only | Print | Product List | Glossary Off
Versions: 1 2 3 4 5 6 7 8 9 10 11 12 13 14 15 16 17 18 19 20 21 22 23 24 25 26 27 28 29 30 31 32 33 34 35 36 37 38 39 40 41 42 43 44 45 46 47 48 49 50

000
ASUS43 KMKX 211311
RWRWI

WISCONSIN REGIONAL WEATHER ROUNDUP
NATIONAL WEATHER SERVICE MILWAUKEE/SULLIVAN WI
800 AM CDT THU SEP 21 2017

NOTE: "FAIR" INDICATES FEW OR NO CLOUDS BELOW 12,000 FEET WITH NO
SIGNIFICANT WEATHER AND/OR OBSTRUCTIONS TO VISIBILITY.

WIZ001-002-006>008-014>016-023>028-211400-
NORTHWEST WISCONSIN

CITY           SKY/WX    TMP DP  RH WIND       PRES   REMARKS
SUPERIOR ARPT  SUNNY     42  42 100 CALM      30.03S
ASHLAND        SUNNY     46  45  96 CALM      30.06R
HAYWARD        SUNNY     47  44  90 CALM      30.04S
SIREN          SUNNY     44  43  97 CALM      30.02F
CUMBERLAND     SUNNY     48  46  93 CALM      30.02S
RICE LAKE      SUNNY     47  47  98 CALM      30.04S
CHETEK         SUNNY     48  48 100 MISG      30.04R
LADYSMITH      SUNNY     54  53  97 E3        30.05S
EAU CLAIRE     SUNNY     52  51  97 N3        30.02R
MENOMONIE      SUNNY     52  51  96 NW3       30.03R
NEW RICHMOND   SUNNY     52  52 100 E3        30.01S
OSCEOLA        SUNNY     50  50 100 CALM      30.04S
$$

WIZ003>005-009-010-017-018-211400-
NORTH CENTRAL WISCONSIN

CITY           SKY/WX    TMP DP  RH WIND       PRES   REMARKS
MANITOWISH WTR SUNNY     49  49 100 CALM      30.06S
ARBOR VITAE    SUNNY     53  52  95 CALM      30.06S
WOODRUFF       SUNNY     53  52  95 CALM      30.06S
RHINELANDER    SUNNY     55  55 100 CALM      30.07S
EAGLE RIVER    SUNNY     50  50 100 CALM      30.07R
LAND O LAKES   SUNNY     49  49 100 CALM      30.09S FOG
PHILLIPS       SUNNY     48  48 100 CALM      30.05R
TOMAHAWK         N/A     49  48  97 CALM      30.06S FOG
MEDFORD        SUNNY     55  54  96 E7        30.04S
MERRILL        SUNNY     54  54 100 CALM      30.06S
$$

WIZ029-030-035-036-043>047-211400-
CENTRAL WISCONSIN

CITY           SKY/WX    TMP DP  RH WIND       PRES   REMARKS
WAUSAU         MOSUNNY   60  58  92 N3        30.03S
MOSINEE        CLOUDY    61  61 100 NE5       30.05R
MARSHFIELD     PTSUNNY   60  56  86 NE9       30.02S
STEVENS POINT  CLOUDY    63  63 100 E8        30.03S
WAUPACA        CLOUDY    68  67  98 NE5       30.02S FOG
WAUTOMA        FOG       67  67 100 NE7       30.02R VSB 1/2
WISC RAPIDS    FOG       64  64 100 NE5       30.03S VSB 1/4
CAMP DOUGLAS   PTSUNNY   59  59 100 CALM      30.01R
$$

WIZ011>013-019>022-031-037>040-048>050-211400-
NORTHEAST WISCONSIN

CITY           SKY/WX    TMP DP  RH WIND       PRES   REMARKS
ANTIGO         CLOUDY    60  57  91 NE3       30.07R
SHAWANO        CLOUDY    67  65  91 NE6       30.03S
OCONTO         CLOUDY    66  62  86 N3        30.03R
STURGEON BAY   CLOUDY    67  66  97 N3        30.03R
GREEN BAY      CLOUDY    68  66  93 NE12      30.03R
MANITOWOC      CLOUDY    69  67  93 CALM      30.02R
APPLETON       CLOUDY    66  66 100 NE7       30.01R FOG
CLINTONVILLE   NOT AVBL
OSHKOSH        CLOUDY    69  68  96 NE7       30.01R FOG
$$

WIZ032>034-041-042-053>061-211400-
SOUTHWEST WISCONSIN

CITY           SKY/WX    TMP DP  RH WIND       PRES   REMARKS
LA CROSSE      NOT AVBL
SPARTA         FOG       52  52 100 CALM      30.02R VSB 1/2
VIROQUA        CLOUDY    63  63 100 NE5       30.01R
BOSCOBEL       PTSUNNY   69  67  93 CALM      29.99R FOG
PRAIRIE DU CHI CLOUDY    67  65  94 N3        29.97S FOG
PLATTEVILLE    CLOUDY    67  67 100 NW3       29.99R
$$

WIZ056-057-062-063-064-067-068-211400-
SOUTH CENTRAL WISCONSIN

CITY           SKY/WX    TMP DP  RH WIND       PRES   REMARKS
REEDSBURG      CLOUDY    66  66 100 CALM      30.00R
BARABOO/DELLS  CLOUDY    67  65  96 CALM      30.02R FOG
LONE ROCK      PTSUNNY   69  69 100 CALM      29.98S FOG
MINERAL POINT  CLOUDY    68  68 100 NW3       30.00R FOG
MADISON        FOG       70  70 100 N5        30.00R VSB 1/4
MIDDLETON      CLOUDY    70  70 100 CALM      30.01R
WATERTOWN      CLOUDY    69  69 100 CALM      30.00S
MONROE         CLOUDY    64  63  94 NE6       29.98S
JANESVILLE     PTSUNNY   70  70 100 CALM      29.98R
$$

WIZ051-052-058>065-066-070>072-211400-
SOUTHEAST WISCONSIN

CITY           SKY/WX    TMP DP  RH WIND       PRES   REMARKS
MILWAUKEE      CLOUDY    74  68  81 NE9       30.01R
WAUKESHA       MOSUNNY   66  64  94 CALM      30.01R
MILWAUKEE/TIMM SUNNY     70  64  83 CALM      30.02R
RACINE         CLOUDY    72  68  87 W5        30.01R
BURLINGTON     CLOUDY    68  68 100 CALM      30.00R
KENOSHA        CLOUDY    73  67  81 W3        30.00R
FOND DU LAC    CLOUDY    70  66  87 NE5       30.01S
SHEBOYGAN      CLOUDY    68  68 100 VRB3      30.02R
WEST BEND        N/A     66  66 100 CALM      30.02R
JUNEAU         CLOUDY    67  67  98 CALM      30.03R FOG
$$

LSZ147-162-211400-
LAKE SUPERIOR

STATION/POSITION TIME  TEMP    WIND        PRES    WAVE
                       AIR SEA DIR/SP/G            HT/PER
                 (UTC) (F)     (DEG/KT/KT) (MB)    (FT/S)
W MID LAKE BUOY  1250   56 54  110/  6/  6 1017.3R   1
DEVILS ISLAND    1300   58     110/  4/  5 1017.4R
PORT WING        1140          110/  4/  7 1016.6F
SAXON HARBOR     1230   49     190/  5/  8 1016.9R
$$

LMZ867-665-643>646-211400-
LAKE MICHIGAN

STATION/POSITION TIME  TEMP    WIND        PRES    WAVE
                       AIR SEA DIR/SP/G            HT/PER
                 (UTC) (F)     (DEG/KT/KT) (MB)    (FT/S)
S GREEN BAY BUOY 1300   67 66   30/ 10/ 14 1016.4
N MID LAKE BUOY  1250   66 65  360/  8/ 10 1016.4R   3/ 6
NORTHPORT PIER   1240   67     340/  8/ 10 1016.3R
KEWAUNEE LAKESHO 1248   64      10/  1/  3 1015.6R
SHEBOYGAN LAKESH 1300   69      10/  7/  7 1015.9R
PORT WASHINGTON  1230   69     340/  4/  6 1016.6S
ATWATER BUOY     1209   69 66   30/ 10/ 12 1015.9R
MILWAUKEE LAKESH 1250   69      30/  8/  9   N/A
S MID LAKE BUOY  1250   71 69  190/ 10/ 10 1015.4R   1/ 3
KENOSHA   LAKESH 1300   72     160/  2/  3 1015.6
$$

TC  - TEMPERATURE IN CELSIUS
VSB - VISIBILITY IN STATUTE MILES
WCI - WIND CHILL INDEX
HX  - HEAT INDEX





USA.gov is the U.S. government's official web portal to all federal, state and local government web resources and services.